owner,sensor,date,latitude,longitude,vertical_datum,sea_water_practical_salinity,qcFlag 
DISL,ioos:station:DISL:KATA:1,2013-02-01T00:00:00Z,30.2583,-88.2131,3.809,17.23,1111122 
DISL,ioos:station:DISL:KATA:1,2013-02-01T00:30:00Z,30.2583,-88.2131,3.796,16.89,1111122 
DISL,ioos:station:DISL:KATA:1,2013-02-01T01:00:00Z,30.2583,-88.2131,3.794,15.9,1111122 
DISL,ioos:station:DISL:KATA:1,2013-02-01T01:30:00Z,30.2583,-88.2131,3.792,15.72,1111122 
DISL,ioos:station:DISL:KATA:1,2013-02-01T02:00:00Z,30.2583,-88.2131,3.779,15.5,1111122 
DISL,ioos:station:DISL:KATA:1,2013-02-01T02:30:00Z,30.2583,-88.2131,3.774,14.76,1111122 
DISL,ioos:station:DISL:KATA:1,2013-02-01T03:00:00Z,30.2583,-88.2131,3.778,14.47,1111122 
DISL,ioos:station:DISL:KATA:1,2013-02-01T03:30:00Z,30.2583,-88.2131,3.774,15.2,1111122 
DISL,ioos:station:DISL:KATA:1,2013-02-01T04:00:00Z,30.2583,-88.2131,3.766,15.26,1111122 
DISL,ioos:station:DISL:KATA:1,2013-02-01T04:30:00Z,30.2583,-88.2131,3.772,15.23,1111122 
DISL,ioos:station:DISL:KATA:1,2013-02-01T05:00:00Z,30.2583,-88.2131,3.796,15.09,1111122 
DISL,ioos:station:DISL:KATA:1,2013-02-01T05:30:00Z,30.2583,-88.2131,3.817,15.1,1111122 
DISL,ioos:station:DISL:KATA:1,2013-02-01T06:00:00Z,30.2583,-88.2131,3.832,15.2,1111122 
DISL,ioos:station:DISL:KATA:1,2013-02-01T06:30:00Z,30.2583,-88.2131,3.9,16.26,1111122 
DISL,ioos:station:DISL:KATA:1,2013-02-01T07:00:00Z,30.2583,-88.2131,3.823,16.91,1111122 
DISL,ioos:station:DISL:KATA:1,2013-02-01T07:30:00Z,30.2583,-88.2131,3.796,18.29,1111122 
DISL,ioos:station:DISL:KATA:1,2013-02-01T08:00:00Z,30.2583,-88.2131,3.776,18.94,1111122 
DISL,ioos:station:DISL:KATA:1,2013-02-01T08:30:00Z,30.2583,-88.2131,3.733,19.18,1111122 
DISL,ioos:station:DISL:KATA:1,2013-02-01T09:00:00Z,30.2583,-88.2131,3.726,19.45,1111122 
DISL,ioos:station:DISL:KATA:1,2013-02-01T09:30:00Z,30.2583,-88.2131,3.699,19.7,1111122 
DISL,ioos:station:DISL:KATA:1,2013-02-01T10:00:00Z,30.2583,-88.2131,3.674,19.45,1111122 
DISL,ioos:station:DISL:KATA:1,2013-02-01T10:30:00Z,30.2583,-88.2131,3.666,19.53,1111122 
DISL,ioos:station:DISL:KATA:1,2013-02-01T11:00:00Z,30.2583,-88.2131,3.652,18.61,1111122 
DISL,ioos:station:DISL:KATA:1,2013-02-01T11:30:00Z,30.2583,-88.2131,3.65,16.45,1111122 
DISL,ioos:station:DISL:KATA:1,2013-02-01T12:00:00Z,30.2583,-88.2131,3.654,14.96,1111122 
DISL,ioos:station:DISL:KATA:1,2013-02-01T12:30:00Z,30.2583,-88.2131,3.651,14.45,1111122 
DISL,ioos:station:DISL:KATA:1,2013-02-01T13:00:00Z,30.2583,-88.2131,3.66,14.13,1111122 
DISL,ioos:station:DISL:KATA:1,2013-02-01T13:30:00Z,30.2583,-88.2131,3.669,13.71,1111122 
DISL,ioos:station:DISL:KATA:1,2013-02-01T14:00:00Z,30.2583,-88.2131,3.661,15.95,1111122 
DISL,ioos:station:DISL:KATA:1,2013-02-01T14:30:00Z,30.2583,-88.2131,3.67,16.35,1111122 
DISL,ioos:station:DISL:KATA:1,2013-02-01T15:00:00Z,30.2583,-88.2131,3.672,15.27,1111122 
DISL,ioos:station:DISL:KATA:1,2013-02-01T15:30:00Z,30.2583,-88.2131,3.671,14.59,1111122 
DISL,ioos:station:DISL:KATA:1,2013-02-01T16:00:00Z,30.2583,-88.2131,3.658,15.11,1111122 
DISL,ioos:station:DISL:KATA:1,2013-02-01T16:30:00Z,30.2583,-88.2131,3.647,13.82,1111122 
DISL,ioos:station:DISL:KATA:1,2013-02-01T17:00:00Z,30.2583,-88.2131,3.647,13.45,1111122 
DISL,ioos:station:DISL:KATA:1,2013-02-01T17:30:00Z,30.2583,-88.2131,3.664,13.83,1111122 
DISL,ioos:station:DISL:KATA:1,2013-02-01T18:00:00Z,30.2583,-88.2131,3.693,13.82,1111122 
DISL,ioos:station:DISL:KATA:1,2013-02-01T18:30:00Z,30.2583,-88.2131,3.737,15.6,1111122 
DISL,ioos:station:DISL:KATA:1,2013-02-01T19:00:00Z,30.2583,-88.2131,3.786,18.01,1111122 
DISL,ioos:station:DISL:KATA:1,2013-02-01T19:30:00Z,30.2583,-88.2131,3.824,16.44,1111122 
DISL,ioos:station:DISL:KATA:1,2013-02-01T20:00:00Z,30.2583,-88.2131,3.864,14.85,1111122 
DISL,ioos:station:DISL:KATA:1,2013-02-01T20:30:00Z,30.2583,-88.2131,3.871,14.51,1111122 
DISL,ioos:station:DISL:KATA:1,2013-02-01T21:00:00Z,30.2583,-88.2131,3.858,16.25,1111122 
DISL,ioos:station:DISL:KATA:1,2013-02-01T21:30:00Z,30.2583,-88.2131,3.844,15.89,1111122 
DISL,ioos:station:DISL:KATA:1,2013-02-01T22:00:00Z,30.2583,-88.2131,3.814,16.5,1111122 
DISL,ioos:station:DISL:KATA:1,2013-02-01T22:30:00Z,30.2583,-88.2131,3.808,16.04,1111122 
DISL,ioos:station:DISL:KATA:1,2013-02-01T23:00:00Z,30.2583,-88.2131,3.798,15.83,1111122 
DISL,ioos:station:DISL:KATA:1,2013-02-01T23:30:00Z,30.2583,-88.2131,3.783,15.9,1111122 
DISL,ioos:station:DISL:KATA:1,2013-02-02T00:00:00Z,30.2583,-88.2131,3.772,15.53,1111122 
DISL,ioos:station:DISL:KATA:1,2013-02-02T00:30:00Z,30.2583,-88.2131,3.764,14.75,1111122 
DISL,ioos:station:DISL:KATA:1,2013-02-02T01:00:00Z,30.2583,-88.2131,3.739,14.58,1111122 
DISL,ioos:station:DISL:KATA:1,2013-02-02T01:30:00Z,30.2583,-88.2131,3.717,14.64,1111122 
DISL,ioos:station:DISL:KATA:1,2013-02-02T02:00:00Z,30.2583,-88.2131,3.708,14.68,1111122 
DISL,ioos:station:DISL:KATA:1,2013-02-02T02:30:00Z,30.2583,-88.2131,3.699,14.18,1111122 
DISL,ioos:station:DISL:KATA:1,2013-02-02T03:00:00Z,30.2583,-88.2131,3.68,16.45,1111122 
DISL,ioos:station:DISL:KATA:1,2013-02-02T03:30:00Z,30.2583,-88.2131,3.679,13.95,1111122 
DISL,ioos:station:DISL:KATA:1,2013-02-02T04:00:00Z,30.2583,-88.2131,3.664,14.46,1111122 
DISL,ioos:station:DISL:KATA:1,2013-02-02T04:30:00Z,30.2583,-88.2131,3.655,14.67,1111122 
DISL,ioos:station:DISL:KATA:1,2013-02-02T05:00:00Z,30.2583,-88.2131,3.661,13.67,1111122 
DISL,ioos:station:DISL:KATA:1,2013-02-02T05:30:00Z,30.2583,-88.2131,3.654,13.36,1111122 
DISL,ioos:station:DISL:KATA:1,2013-02-02T06:00:00Z,30.2583,-88.2131,3.644,15.42,1111122 
DISL,ioos:station:DISL:KATA:1,2013-02-02T06:30:00Z,30.2583,-88.2131,3.636,14.79,1111122 
DISL,ioos:station:DISL:KATA:1,2013-02-02T07:00:00Z,30.2583,-88.2131,3.622,15.59,1111122 
DISL,ioos:station:DISL:KATA:1,2013-02-02T07:30:00Z,30.2583,-88.2131,3.615,15.94,1111122 
DISL,ioos:station:DISL:KATA:1,2013-02-02T08:00:00Z,30.2583,-88.2131,3.626,14.05,1111122 
DISL,ioos:station:DISL:KATA:1,2013-02-02T08:30:00Z,30.2583,-88.2131,3.637,13.34,1111122 
DISL,ioos:station:DISL:KATA:1,2013-02-02T09:00:00Z,30.2583,-88.2131,3.662,12.53,1111122 
DISL,ioos:station:DISL:KATA:1,2013-02-02T09:30:00Z,30.2583,-88.2131,3.682,12.93,1111122 
DISL,ioos:station:DISL:KATA:1,2013-02-02T10:00:00Z,30.2583,-88.2131,3.695,12.8,1111122 
DISL,ioos:station:DISL:KATA:1,2013-02-02T10:30:00Z,30.2583,-88.2131,3.703,12.6,1111122 
DISL,ioos:station:DISL:KATA:1,2013-02-02T11:00:00Z,30.2583,-88.2131,3.702,12.6,1111122 
DISL,ioos:station:DISL:KATA:1,2013-02-02T11:30:00Z,30.2583,-88.2131,3.7,12.37,1111122 
DISL,ioos:station:DISL:KATA:1,2013-02-02T12:00:00Z,30.2583,-88.2131,3.695,12.37,1111122 
DISL,ioos:station:DISL:KATA:1,2013-02-02T12:30:00Z,30.2583,-88.2131,3.695,12.48,1111122 
DISL,ioos:station:DISL:KATA:1,2013-02-02T13:00:00Z,30.2583,-88.2131,3.696,12.42,1111122 
DISL,ioos:station:DISL:KATA:1,2013-02-02T13:30:00Z,30.2583,-88.2131,3.698,12.28,1111122 
DISL,ioos:station:DISL:KATA:1,2013-02-02T14:00:00Z,30.2583,-88.2131,3.718,12.29,1111122 
DISL,ioos:station:DISL:KATA:1,2013-02-02T14:30:00Z,30.2583,-88.2131,3.733,12.3,1111122 
DISL,ioos:station:DISL:KATA:1,2013-02-02T15:00:00Z,30.2583,-88.2131,3.752,12.35,1111122 
DISL,ioos:station:DISL:KATA:1,2013-02-02T15:30:00Z,30.2583,-88.2131,3.776,12.57,1111122 
DISL,ioos:station:DISL:KATA:1,2013-02-02T16:00:00Z,30.2583,-88.2131,3.81,12.89,1111122 
DISL,ioos:station:DISL:KATA:1,2013-02-02T16:30:00Z,30.2583,-88.2131,3.838,12.86,1111122 
DISL,ioos:station:DISL:KATA:1,2013-02-02T17:00:00Z,30.2583,-88.2131,3.88,12.67,1111122 
DISL,ioos:station:DISL:KATA:1,2013-02-02T17:30:00Z,30.2583,-88.2131,3.913,12.57,1111122 
DISL,ioos:station:DISL:KATA:1,2013-02-02T18:00:00Z,30.2583,-88.2131,3.944,12.96,1111122 
DISL,ioos:station:DISL:KATA:1,2013-02-02T18:30:00Z,30.2583,-88.2131,3.967,14.6,1111122 
DISL,ioos:station:DISL:KATA:1,2013-02-02T19:00:00Z,30.2583,-88.2131,3.999,17.55,1111122 
DISL,ioos:station:DISL:KATA:1,2013-02-02T19:30:00Z,30.2583,-88.2131,4.028,18.74,1111122 
DISL,ioos:station:DISL:KATA:1,2013-02-02T20:00:00Z,30.2583,-88.2131,4.049,19.78,1111122 
DISL,ioos:station:DISL:KATA:1,2013-02-02T20:30:00Z,30.2583,-88.2131,4.057,20.46,1111122 
DISL,ioos:station:DISL:KATA:1,2013-02-02T21:00:00Z,30.2583,-88.2131,4.063,21.2,1111122 
DISL,ioos:station:DISL:KATA:1,2013-02-02T21:30:00Z,30.2583,-88.2131,4.066,21.6,1111122 
DISL,ioos:station:DISL:KATA:1,2013-02-02T22:00:00Z,30.2583,-88.2131,4.059,22.18,1111122 
DISL,ioos:station:DISL:KATA:1,2013-02-02T22:30:00Z,30.2583,-88.2131,4.046,22.74,1111122 
DISL,ioos:station:DISL:KATA:1,2013-02-02T23:00:00Z,30.2583,-88.2131,4.024,23.17,1111122 
DISL,ioos:station:DISL:KATA:1,2013-02-02T23:30:00Z,30.2583,-88.2131,4.006,23.81,1111122 
DISL,ioos:station:DISL:KATA:1,2013-02-03T00:00:00Z,30.2583,-88.2131,3.982,24.21,1111122 
DISL,ioos:station:DISL:KATA:1,2013-02-03T00:30:00Z,30.2583,-88.2131,3.951,24.51,1111122 
DISL,ioos:station:DISL:KATA:1,2013-02-03T01:00:00Z,30.2583,-88.2131,3.916,24.72,1111122 
DISL,ioos:station:DISL:KATA:1,2013-02-03T01:30:00Z,30.2583,-88.2131,3.878,24.81,1111122 
DISL,ioos:station:DISL:KATA:1,2013-02-03T02:00:00Z,30.2583,-88.2131,3.841,25.0,1111122 
DISL,ioos:station:DISL:KATA:1,2013-02-03T02:30:00Z,30.2583,-88.2131,3.81,25.02,1111122 
DISL,ioos:station:DISL:KATA:1,2013-02-03T03:00:00Z,30.2583,-88.2131,3.773,24.9,1111122 
DISL,ioos:station:DISL:KATA:1,2013-02-03T03:30:00Z,30.2583,-88.2131,3.752,25.39,1111122 
DISL,ioos:station:DISL:KATA:1,2013-02-03T04:00:00Z,30.2583,-88.2131,3.726,25.06,1111122 
DISL,ioos:station:DISL:KATA:1,2013-02-03T04:30:00Z,30.2583,-88.2131,3.704,24.94,1111122 
DISL,ioos:station:DISL:KATA:1,2013-02-03T05:00:00Z,30.2583,-88.2131,3.687,25.68,1111122 
DISL,ioos:station:DISL:KATA:1,2013-02-03T05:30:00Z,30.2583,-88.2131,3.673,26.09,1111122 
DISL,ioos:station:DISL:KATA:1,2013-02-03T06:00:00Z,30.2583,-88.2131,3.662,26.47,1111122 
DISL,ioos:station:DISL:KATA:1,2013-02-03T06:30:00Z,30.2583,-88.2131,3.656,26.93,1111122 
DISL,ioos:station:DISL:KATA:1,2013-02-03T07:00:00Z,30.2583,-88.2131,3.653,27.46,1111122 
DISL,ioos:station:DISL:KATA:1,2013-02-03T07:30:00Z,30.2583,-88.2131,3.651,27.8,1111122 
DISL,ioos:station:DISL:KATA:1,2013-02-03T08:00:00Z,30.2583,-88.2131,3.672,27.96,1111122 
DISL,ioos:station:DISL:KATA:1,2013-02-03T08:30:00Z,30.2583,-88.2131,3.656,28.14,1111122 
DISL,ioos:station:DISL:KATA:1,2013-02-03T09:00:00Z,30.2583,-88.2131,3.623,28.07,1111122 
DISL,ioos:station:DISL:KATA:1,2013-02-03T09:30:00Z,30.2583,-88.2131,3.611,28.05,1111122 
DISL,ioos:station:DISL:KATA:1,2013-02-03T10:00:00Z,30.2583,-88.2131,3.602,28.18,1111122 
DISL,ioos:station:DISL:KATA:1,2013-02-03T10:30:00Z,30.2583,-88.2131,3.59,28.35,1111122 
DISL,ioos:station:DISL:KATA:1,2013-02-03T11:00:00Z,30.2583,-88.2131,3.581,28.46,1111122 
DISL,ioos:station:DISL:KATA:1,2013-02-03T11:30:00Z,30.2583,-88.2131,3.567,28.41,1111122 
DISL,ioos:station:DISL:KATA:1,2013-02-03T12:00:00Z,30.2583,-88.2131,3.559,28.53,1111122 
DISL,ioos:station:DISL:KATA:1,2013-02-03T12:30:00Z,30.2583,-88.2131,3.562,28.74,1111122 
DISL,ioos:station:DISL:KATA:1,2013-02-03T13:00:00Z,30.2583,-88.2131,3.6,28.93,1111122 
DISL,ioos:station:DISL:KATA:1,2013-02-03T13:30:00Z,30.2583,-88.2131,3.63,29.06,1111122 
DISL,ioos:station:DISL:KATA:1,2013-02-03T14:00:00Z,30.2583,-88.2131,3.669,29.21,1111122 
DISL,ioos:station:DISL:KATA:1,2013-02-03T14:30:00Z,30.2583,-88.2131,3.707,28.82,1111122 
DISL,ioos:station:DISL:KATA:1,2013-02-03T15:00:00Z,30.2583,-88.2131,3.747,29.29,1111122 
DISL,ioos:station:DISL:KATA:1,2013-02-03T15:30:00Z,30.2583,-88.2131,3.795,29.25,1111122 
DISL,ioos:station:DISL:KATA:1,2013-02-03T16:00:00Z,30.2583,-88.2131,3.828,29.24,1111122 
DISL,ioos:station:DISL:KATA:1,2013-02-03T16:30:00Z,30.2583,-88.2131,3.857,29.07,1111122 
DISL,ioos:station:DISL:KATA:1,2013-02-03T17:00:00Z,30.2583,-88.2131,3.883,28.78,1111122 
DISL,ioos:station:DISL:KATA:1,2013-02-03T17:30:00Z,30.2583,-88.2131,3.906,27.68,1111122 
DISL,ioos:station:DISL:KATA:1,2013-02-03T18:00:00Z,30.2583,-88.2131,3.922,27.81,1111122 
DISL,ioos:station:DISL:KATA:1,2013-02-03T18:30:00Z,30.2583,-88.2131,3.951,28.26,1111122 
DISL,ioos:station:DISL:KATA:1,2013-02-03T19:00:00Z,30.2583,-88.2131,3.978,28.35,1111122 
DISL,ioos:station:DISL:KATA:1,2013-02-03T19:30:00Z,30.2583,-88.2131,4.017,27.96,1111122 
DISL,ioos:station:DISL:KATA:1,2013-02-03T20:00:00Z,30.2583,-88.2131,4.047,27.9,1111122 
DISL,ioos:station:DISL:KATA:1,2013-02-03T20:30:00Z,30.2583,-88.2131,4.066,27.87,1111122 
DISL,ioos:station:DISL:KATA:1,2013-02-03T21:00:00Z,30.2583,-88.2131,4.078,27.9,1111122 
DISL,ioos:station:DISL:KATA:1,2013-02-03T21:30:00Z,30.2583,-88.2131,4.076,27.83,1111122 
DISL,ioos:station:DISL:KATA:1,2013-02-03T22:00:00Z,30.2583,-88.2131,4.066,27.86,1111122 
DISL,ioos:station:DISL:KATA:1,2013-02-03T22:30:00Z,30.2583,-88.2131,4.051,28.58,1111122 
DISL,ioos:station:DISL:KATA:1,2013-02-03T23:00:00Z,30.2583,-88.2131,4.036,28.63,1111122 
DISL,ioos:station:DISL:KATA:1,2013-02-03T23:30:00Z,30.2583,-88.2131,4.017,28.4,1111122 
DISL,ioos:station:DISL:KATA:1,2013-02-04T00:00:00Z,30.2583,-88.2131,4.0,27.94,1111122 
DISL,ioos:station:DISL:KATA:1,2013-02-04T00:30:00Z,30.2583,-88.2131,3.984,28.45,1111122 
DISL,ioos:station:DISL:KATA:1,2013-02-04T01:00:00Z,30.2583,-88.2131,3.963,28.26,1111122 
DISL,ioos:station:DISL:KATA:1,2013-02-04T01:30:00Z,30.2583,-88.2131,3.943,27.65,1111122 
DISL,ioos:station:DISL:KATA:1,2013-02-04T02:00:00Z,30.2583,-88.2131,3.917,27.55,1111122 
DISL,ioos:station:DISL:KATA:1,2013-02-04T02:30:00Z,30.2583,-88.2131,3.882,27.52,1111122 
DISL,ioos:station:DISL:KATA:1,2013-02-04T03:00:00Z,30.2583,-88.2131,3.846,27.86,1111122 
DISL,ioos:station:DISL:KATA:1,2013-02-04T03:30:00Z,30.2583,-88.2131,3.813,26.77,1111122 
DISL,ioos:station:DISL:KATA:1,2013-02-04T04:00:00Z,30.2583,-88.2131,3.766,26.98,1111122 
DISL,ioos:station:DISL:KATA:1,2013-02-04T04:30:00Z,30.2583,-88.2131,3.738,26.3,1111122 
DISL,ioos:station:DISL:KATA:1,2013-02-04T05:00:00Z,30.2583,-88.2131,3.711,25.8,1111122 
DISL,ioos:station:DISL:KATA:1,2013-02-04T05:30:00Z,30.2583,-88.2131,3.678,26.27,1111122 
DISL,ioos:station:DISL:KATA:1,2013-02-04T06:00:00Z,30.2583,-88.2131,3.653,26.9,1111122 
DISL,ioos:station:DISL:KATA:1,2013-02-04T06:30:00Z,30.2583,-88.2131,3.636,26.77,1111122 
DISL,ioos:station:DISL:KATA:1,2013-02-04T07:00:00Z,30.2583,-88.2131,3.603,26.63,1111122 
DISL,ioos:station:DISL:KATA:1,2013-02-04T07:30:00Z,30.2583,-88.2131,3.584,26.84,1111122 
DISL,ioos:station:DISL:KATA:1,2013-02-04T08:00:00Z,30.2583,-88.2131,3.562,26.73,1111122 
DISL,ioos:station:DISL:KATA:1,2013-02-04T08:30:00Z,30.2583,-88.2131,3.549,26.46,1111122 
DISL,ioos:station:DISL:KATA:1,2013-02-04T09:00:00Z,30.2583,-88.2131,3.543,26.83,1111122 
DISL,ioos:station:DISL:KATA:1,2013-02-04T09:30:00Z,30.2583,-88.2131,3.536,27.14,1111122 
DISL,ioos:station:DISL:KATA:1,2013-02-04T10:00:00Z,30.2583,-88.2131,3.528,26.63,1111122 
DISL,ioos:station:DISL:KATA:1,2013-02-04T10:30:00Z,30.2583,-88.2131,3.529,27.43,1111122 
DISL,ioos:station:DISL:KATA:1,2013-02-04T11:00:00Z,30.2583,-88.2131,3.54,27.58,1111122 
DISL,ioos:station:DISL:KATA:1,2013-02-04T11:30:00Z,30.2583,-88.2131,3.569,27.59,1111122 
DISL,ioos:station:DISL:KATA:1,2013-02-04T12:00:00Z,30.2583,-88.2131,3.599,27.55,1111122 
DISL,ioos:station:DISL:KATA:1,2013-02-04T12:30:00Z,30.2583,-88.2131,3.638,27.67,1111122 
DISL,ioos:station:DISL:KATA:1,2013-02-04T13:00:00Z,30.2583,-88.2131,3.682,27.69,1111122 
DISL,ioos:station:DISL:KATA:1,2013-02-04T13:30:00Z,30.2583,-88.2131,3.713,27.78,1111122 
DISL,ioos:station:DISL:KATA:1,2013-02-04T14:00:00Z,30.2583,-88.2131,3.739,27.82,1111122 
DISL,ioos:station:DISL:KATA:1,2013-02-04T14:30:00Z,30.2583,-88.2131,3.762,27.66,1111122 
DISL,ioos:station:DISL:KATA:1,2013-02-04T15:00:00Z,30.2583,-88.2131,3.793,27.81,1111122 
DISL,ioos:station:DISL:KATA:1,2013-02-04T15:30:00Z,30.2583,-88.2131,3.809,27.76,1111122 
DISL,ioos:station:DISL:KATA:1,2013-02-04T16:00:00Z,30.2583,-88.2131,3.827,27.75,1111122 
DISL,ioos:station:DISL:KATA:1,2013-02-04T16:30:00Z,30.2583,-88.2131,3.86,27.74,1111122 
DISL,ioos:station:DISL:KATA:1,2013-02-04T17:00:00Z,30.2583,-88.2131,3.886,27.85,1111122 
DISL,ioos:station:DISL:KATA:1,2013-02-04T17:30:00Z,30.2583,-88.2131,3.922,26.48,1111122 
DISL,ioos:station:DISL:KATA:1,2013-02-04T18:00:00Z,30.2583,-88.2131,3.947,27.9,1111122 
DISL,ioos:station:DISL:KATA:1,2013-02-04T18:30:00Z,30.2583,-88.2131,3.974,28.16,1111122 
DISL,ioos:station:DISL:KATA:1,2013-02-04T19:00:00Z,30.2583,-88.2131,4.001,28.28,1111122 
DISL,ioos:station:DISL:KATA:1,2013-02-04T19:30:00Z,30.2583,-88.2131,4.031,28.35,1111122 
DISL,ioos:station:DISL:KATA:1,2013-02-04T20:00:00Z,30.2583,-88.2131,4.063,28.33,1111122 
DISL,ioos:station:DISL:KATA:1,2013-02-04T20:30:00Z,30.2583,-88.2131,4.084,28.28,1111122 
DISL,ioos:station:DISL:KATA:1,2013-02-04T21:00:00Z,30.2583,-88.2131,4.098,28.23,1111122 
DISL,ioos:station:DISL:KATA:1,2013-02-04T21:30:00Z,30.2583,-88.2131,4.119,28.22,1111122 
DISL,ioos:station:DISL:KATA:1,2013-02-04T22:00:00Z,30.2583,-88.2131,4.125,28.19,1111122 
DISL,ioos:station:DISL:KATA:1,2013-02-04T22:30:00Z,30.2583,-88.2131,4.121,28.15,1111122 
DISL,ioos:station:DISL:KATA:1,2013-02-04T23:00:00Z,30.2583,-88.2131,4.123,28.11,1111122 
DISL,ioos:station:DISL:KATA:1,2013-02-04T23:30:00Z,30.2583,-88.2131,4.123,28.07,1111122 
DISL,ioos:station:DISL:KATA:1,2013-02-05T00:00:00Z,30.2583,-88.2131,4.116,27.94,1111122 
DISL,ioos:station:DISL:KATA:1,2013-02-05T00:30:00Z,30.2583,-88.2131,4.101,27.78,1111122 
DISL,ioos:station:DISL:KATA:1,2013-02-05T01:00:00Z,30.2583,-88.2131,4.094,27.9,1111122 
DISL,ioos:station:DISL:KATA:1,2013-02-05T01:30:00Z,30.2583,-88.2131,4.086,27.9,1111122 
DISL,ioos:station:DISL:KATA:1,2013-02-05T02:00:00Z,30.2583,-88.2131,4.06,27.9,1111122 
DISL,ioos:station:DISL:KATA:1,2013-02-05T02:30:00Z,30.2583,-88.2131,4.041,27.77,1111122 
DISL,ioos:station:DISL:KATA:1,2013-02-05T03:00:00Z,30.2583,-88.2131,4.006,27.92,1111122 
DISL,ioos:station:DISL:KATA:1,2013-02-05T03:30:00Z,30.2583,-88.2131,3.964,27.94,1111122 
DISL,ioos:station:DISL:KATA:1,2013-02-05T04:00:00Z,30.2583,-88.2131,3.922,27.95,1111122 
DISL,ioos:station:DISL:KATA:1,2013-02-05T04:30:00Z,30.2583,-88.2131,3.875,27.97,1111122 
DISL,ioos:station:DISL:KATA:1,2013-02-05T05:00:00Z,30.2583,-88.2131,3.828,27.98,1111122 
DISL,ioos:station:DISL:KATA:1,2013-02-05T05:30:00Z,30.2583,-88.2131,3.796,27.98,1111122 
DISL,ioos:station:DISL:KATA:1,2013-02-05T06:00:00Z,30.2583,-88.2131,3.769,27.98,1111122 
DISL,ioos:station:DISL:KATA:1,2013-02-05T06:30:00Z,30.2583,-88.2131,3.727,28.0,1111122 
DISL,ioos:station:DISL:KATA:1,2013-02-05T07:00:00Z,30.2583,-88.2131,3.709,28.0,1111122 
DISL,ioos:station:DISL:KATA:1,2013-02-05T07:30:00Z,30.2583,-88.2131,3.692,28.01,1111122 
DISL,ioos:station:DISL:KATA:1,2013-02-05T08:00:00Z,30.2583,-88.2131,3.669,28.01,1111122 
DISL,ioos:station:DISL:KATA:1,2013-02-05T08:30:00Z,30.2583,-88.2131,3.652,28.02,1111122 
DISL,ioos:station:DISL:KATA:1,2013-02-05T09:00:00Z,30.2583,-88.2131,3.646,28.02,1111122 
DISL,ioos:station:DISL:KATA:1,2013-02-05T09:30:00Z,30.2583,-88.2131,3.637,28.01,1111122 
DISL,ioos:station:DISL:KATA:1,2013-02-05T10:00:00Z,30.2583,-88.2131,3.624,28.0,1111122 
DISL,ioos:station:DISL:KATA:1,2013-02-05T10:30:00Z,30.2583,-88.2131,3.595,27.95,1111122 
DISL,ioos:station:DISL:KATA:1,2013-02-05T11:00:00Z,30.2583,-88.2131,3.576,27.93,1111122 
DISL,ioos:station:DISL:KATA:1,2013-02-05T11:30:00Z,30.2583,-88.2131,3.587,27.86,1111122 
DISL,ioos:station:DISL:KATA:1,2013-02-05T12:00:00Z,30.2583,-88.2131,3.615,27.75,1111122 
DISL,ioos:station:DISL:KATA:1,2013-02-05T12:30:00Z,30.2583,-88.2131,3.658,27.66,1111122 
DISL,ioos:station:DISL:KATA:1,2013-02-05T13:00:00Z,30.2583,-88.2131,3.686,27.63,1111122 
DISL,ioos:station:DISL:KATA:1,2013-02-05T13:30:00Z,30.2583,-88.2131,3.748,27.01,1111122 
DISL,ioos:station:DISL:KATA:1,2013-02-05T14:00:00Z,30.2583,-88.2131,3.779,27.52,1111122 
DISL,ioos:station:DISL:KATA:1,2013-02-05T14:30:00Z,30.2583,-88.2131,3.808,27.47,1111122 
DISL,ioos:station:DISL:KATA:1,2013-02-05T15:00:00Z,30.2583,-88.2131,3.849,27.39,1111122 
DISL,ioos:station:DISL:KATA:1,2013-02-05T15:30:00Z,30.2583,-88.2131,3.886,27.31,1111122 
DISL,ioos:station:DISL:KATA:1,2013-02-05T16:00:00Z,30.2583,-88.2131,3.912,27.27,1111122 
DISL,ioos:station:DISL:KATA:1,2013-02-05T16:30:00Z,30.2583,-88.2131,3.94,27.23,1111122 
DISL,ioos:station:DISL:KATA:1,2013-02-05T17:00:00Z,30.2583,-88.2131,3.961,27.24,1111122 
DISL,ioos:station:DISL:KATA:1,2013-02-05T17:30:00Z,30.2583,-88.2131,3.987,27.26,1111122 
DISL,ioos:station:DISL:KATA:1,2013-02-05T18:00:00Z,30.2583,-88.2131,4.022,27.26,1111122 
DISL,ioos:station:DISL:KATA:1,2013-02-05T18:30:00Z,30.2583,-88.2131,4.064,27.27,1111122 
DISL,ioos:station:DISL:KATA:1,2013-02-05T19:00:00Z,30.2583,-88.2131,4.101,27.24,1111122 
DISL,ioos:station:DISL:KATA:1,2013-02-05T19:30:00Z,30.2583,-88.2131,4.154,27.26,1111122 
DISL,ioos:station:DISL:KATA:1,2013-02-05T20:00:00Z,30.2583,-88.2131,4.185,27.24,1111122 
DISL,ioos:station:DISL:KATA:1,2013-02-05T20:30:00Z,30.2583,-88.2131,4.225,27.27,1111122 
DISL,ioos:station:DISL:KATA:1,2013-02-05T21:00:00Z,30.2583,-88.2131,4.251,27.35,1111122 
DISL,ioos:station:DISL:KATA:1,2013-02-05T21:30:00Z,30.2583,-88.2131,4.258,27.34,1111122 
DISL,ioos:station:DISL:KATA:1,2013-02-05T22:00:00Z,30.2583,-88.2131,4.268,27.41,1111122 
DISL,ioos:station:DISL:KATA:1,2013-02-05T22:30:00Z,30.2583,-88.2131,4.262,27.4,1111122 
DISL,ioos:station:DISL:KATA:1,2013-02-05T23:00:00Z,30.2583,-88.2131,4.275,27.38,1111122 
DISL,ioos:station:DISL:KATA:1,2013-02-05T23:30:00Z,30.2583,-88.2131,4.279,27.32,1111122 
DISL,ioos:station:DISL:KATA:1,2013-02-06T00:00:00Z,30.2583,-88.2131,4.272,27.17,1111122 
DISL,ioos:station:DISL:KATA:1,2013-02-06T00:30:00Z,30.2583,-88.2131,4.265,27.27,1111122 
DISL,ioos:station:DISL:KATA:1,2013-02-06T01:00:00Z,30.2583,-88.2131,4.257,27.27,1111122 
DISL,ioos:station:DISL:KATA:1,2013-02-06T01:30:00Z,30.2583,-88.2131,4.249,27.25,1111122 
DISL,ioos:station:DISL:KATA:1,2013-02-06T02:00:00Z,30.2583,-88.2131,4.239,27.24,1111122 
DISL,ioos:station:DISL:KATA:1,2013-02-06T02:30:00Z,30.2583,-88.2131,4.215,27.26,1111122 
DISL,ioos:station:DISL:KATA:1,2013-02-06T03:00:00Z,30.2583,-88.2131,4.185,27.31,1111122 
DISL,ioos:station:DISL:KATA:1,2013-02-06T03:30:00Z,30.2583,-88.2131,4.156,27.23,1111122 
DISL,ioos:station:DISL:KATA:1,2013-02-06T04:00:00Z,30.2583,-88.2131,4.115,27.25,1111122 
DISL,ioos:station:DISL:KATA:1,2013-02-06T04:30:00Z,30.2583,-88.2131,4.061,27.26,1111122 
DISL,ioos:station:DISL:KATA:1,2013-02-06T05:00:00Z,30.2583,-88.2131,4.011,27.2,1111122 
DISL,ioos:station:DISL:KATA:1,2013-02-06T05:30:00Z,30.2583,-88.2131,3.957,27.2,1111122 
DISL,ioos:station:DISL:KATA:1,2013-02-06T06:00:00Z,30.2583,-88.2131,3.907,27.15,1111122 
DISL,ioos:station:DISL:KATA:1,2013-02-06T06:30:00Z,30.2583,-88.2131,3.855,27.09,1111122 
DISL,ioos:station:DISL:KATA:1,2013-02-06T07:00:00Z,30.2583,-88.2131,3.804,27.03,1111122 
DISL,ioos:station:DISL:KATA:1,2013-02-06T07:30:00Z,30.2583,-88.2131,3.764,26.98,1111122 
DISL,ioos:station:DISL:KATA:1,2013-02-06T08:00:00Z,30.2583,-88.2131,3.731,26.94,1111122 
DISL,ioos:station:DISL:KATA:1,2013-02-06T08:30:00Z,30.2583,-88.2131,3.696,26.9,1111122 
DISL,ioos:station:DISL:KATA:1,2013-02-06T09:00:00Z,30.2583,-88.2131,3.674,26.89,1111122 
DISL,ioos:station:DISL:KATA:1,2013-02-06T09:30:00Z,30.2583,-88.2131,3.661,26.89,1111122 
DISL,ioos:station:DISL:KATA:1,2013-02-06T10:00:00Z,30.2583,-88.2131,3.655,26.88,1111122 
DISL,ioos:station:DISL:KATA:1,2013-02-06T10:30:00Z,30.2583,-88.2131,3.656,26.86,1111122 
DISL,ioos:station:DISL:KATA:1,2013-02-06T11:00:00Z,30.2583,-88.2131,3.661,26.82,1111122 
DISL,ioos:station:DISL:KATA:1,2013-02-06T11:30:00Z,30.2583,-88.2131,3.675,26.83,1111122 
DISL,ioos:station:DISL:KATA:1,2013-02-06T12:00:00Z,30.2583,-88.2131,3.689,26.86,1111122 
DISL,ioos:station:DISL:KATA:1,2013-02-06T12:30:00Z,30.2583,-88.2131,3.713,26.85,1111122 
DISL,ioos:station:DISL:KATA:1,2013-02-06T13:00:00Z,30.2583,-88.2131,3.744,26.85,1111122 
DISL,ioos:station:DISL:KATA:1,2013-02-06T13:30:00Z,30.2583,-88.2131,3.777,26.87,1111122 
DISL,ioos:station:DISL:KATA:1,2013-02-06T14:00:00Z,30.2583,-88.2131,3.809,26.9,1111122 